Regional Weather Roundup
Issued by NWS

Home | Current Version | Previous Version | Graphics & Text | Print | Product List | Glossary On
Versions: 1 2 3 4 5 6 7 8 9 10 11 12 13 14 15 16 17 18 19 20 21 22 23 24 25 26 27 28 29 30 31 32 33 34 35 36 37 38 39 40 41 42 43 44 45 46 47 48 49 50
234
ASUS43 KIND 261209
RWRIN

WEATHER ROUNDUP FOR INDIANA
NATIONAL WEATHER SERVICE INDIANAPOLIS IN
800 AM EDT MON SEP 26 2016

NOTE: "FAIR" INDICATES FEW OR NO CLOUDS BELOW 12,000 FEET WITH NO
SIGNIFICANT WEATHER AND/OR OBSTRUCTIONS TO VISIBILITY.

* - STATION DOES NOT REPORT WEATHER SUCH AS PRECIPITATION OR FOG.

+ - STATION NOT QUALITY CONTROLLED BY THE NATIONAL WEATHER SERVICE.
    USE DATA WITH CAUTION...ESPECIALLY DEWPOINT AND RELATIVE
    HUMIDITY OBSERVATIONS.

INZ001>003-010>013-019-020-261300-
NORTHWEST INDIANA

CITY           SKY/WX    TMP DP  RH WIND       PRES   REMARKS
GARY /AIRPORT/ MOCLDY    61  54  77 W12       30.01S
KNOX *+        CLOUDY    57  43  58 W9        30.00R
LA PORTE +     CLOUDY   N/A N/A N/A W7        30.00R
                                      6HR PCP:  0.08;

MICHIGAN CITY+ CLOUDY    59  52  77 MISG      29.99R
MONTICELLO +   CLOUDY    58  53  85 W7        30.01R
6HR MIN TEMP:  57; 6HR MAX TEMP:  69; 6HR PCP:  0.02;

RENSSELAER +   CLOUDY    57  55  94 W8        30.04R
VALPARAISO     CLOUDY    58  55  90 W9        30.00R
6HR MIN TEMP:  58; 6HR MAX TEMP:  67;


$$

LMZ046-743>745-261300-
SOUTHERN LAKE MICHIGAN

STATION/POSITION TIME  TEMP    WIND        PRES    WAVE
                       AIR SEA DIR/SP/G            HT
                 (UTC) (F)     (DEG/KT/KT) (MB)    (FT)
BURNS HARBOR     1200   62     280/ 15/ 22 1015.9R
MICHIGAN CITY    1100   62     280/ 17/ 20   N/A
5NW MICH CITY    1200   64 67  290/ 16/ 21   N/A     5

$$

INZ004-005-014>016-021>024-261300-
NORTH CENTRAL INDIANA

CITY           SKY/WX    TMP DP  RH WIND       PRES   REMARKS
ELKHART        LGT RAIN N/A N/A N/A SW8       29.96S
GOSHEN         LGT RAIN  59  56  89 W10       29.97S
6HR MIN TEMP:  59; 6HR MAX TEMP:  71; 6HR PCP:  0.26;

LOGANSPORT +   LGT RAIN  55  55 100 W10       30.03R
PERU/GRISSOM   MOCLDY    58  58 100 W10       30.00R
6HR MIN TEMP:  58; 6HR MAX TEMP:  71; 6HR PCP:  0.16;

ROCHESTER +    CLOUDY    59  59 100 W8        30.00R
SOUTH BEND     CLOUDY    58  57  97 W9        29.97F
6HR MIN TEMP:  58; 6HR MAX TEMP:  67; 6HR PCP:  0.13;

WARSAW +       LGT RAIN  57  52  82 W3        29.95F

$$

INZ006>009-017-018-025>027-261300-
NORTHEAST INDIANA

CITY           SKY/WX    TMP DP  RH WIND       PRES   REMARKS
ANGOLA *+        N/A     59  50  72 W7        29.95S
AUBURN +       RAIN      59  55  88 W3G9      29.95S
FORT WAYNE     LGT RAIN  59  57  93 W9        29.97R
6HR MIN TEMP:  59; 6HR MAX TEMP:  71; 6HR PCP:  0.11;

HUNTINGTON +   RAIN      58  57  96 W5        29.98R
6HR MIN TEMP:  58; 6HR MAX TEMP:  71; 6HR PCP:  0.04;

KENDALLVILLE + LGT RAIN  59  58  97 W6        29.95F

$$

INZ028-029-035-036-043>045-051>053-261300-
WEST CENTRAL INDIANA

CITY           SKY/WX    TMP DP  RH WIND       PRES   REMARKS
CRAWFORDSVL +  CLOUDY    56  56 100 W7        30.07R
6HR MIN TEMP:  56; 6HR MAX TEMP:  68; 6HR PCP:  0.02;

GREENCASTLE +  CLOUDY    57  57 100 CALM      30.06S FOG
LAFAYETTE      CLOUDY    57  57 100 W7        30.04R
6HR MIN TEMP:  57; 6HR MAX TEMP:  69; 6HR PCP:  0.09;

TERRE HAUTE    LGT RAIN  59  56  89 NW7       30.07S
6HR MIN TEMP:  59; 6HR MAX TEMP:  73; 6HR PCP:  0.06;


$$

INZ030>032-037>040-046>048-054>057-064-065-261300-
CENTRAL INDIANA

CITY           SKY/WX    TMP DP  RH WIND       PRES   REMARKS
COLUMBUS       LGT RAIN  61  61 100 N9        30.04R
FISHERS *+     CLOUDY    57  57 100 CALM      30.05R
GREENWOOD *+   CLOUDY    59  59 100 NW7       30.05R
INDIANAPOLIS   LGT RAIN  59  57  93 NW10      30.05R
6HR MIN TEMP:  59; 6HR MAX TEMP:  72; 6HR PCP:  0.54;

-EAGLE CREEK   LGT RAIN  60  56  86 NW8       30.03S
6HR MIN TEMP:  59; 6HR MAX TEMP:  73; 6HR PCP:  0.23;

MARION +       LGT RAIN  57  55  94 W6        30.01F
MT COMFORT *+  CLOUDY    59  57  94 W7        30.05R
SHELBYVILLE    LGT RAIN  62  58  86 NW8       30.03S
6HR MIN TEMP:  62; 6HR MAX TEMP:  73; 6HR PCP:  0.55;

ZIONSVILLE +   DRIZZLE   57  56  97 W3        30.06R
6HR MIN TEMP:  57; 6HR MAX TEMP:  70; 6HR PCP:  0.28;


$$

INZ033-034-041-042-049-050-058-059-261300-
EAST CENTRAL INDIANA

CITY           SKY/WX    TMP DP  RH WIND       PRES   REMARKS
MUNCIE         LGT RAIN  61  58  90 W8        30.04R
6HR MIN TEMP:  61; 6HR MAX TEMP:  74; 6HR PCP:  0.24;


$$

INZ060-061-067>069-081>083-085>088-261300-
SOUTHWEST INDIANA

CITY           SKY/WX    TMP DP  RH WIND       PRES   REMARKS
EVANSVILLE     LGT RAIN  61  58  90 W5        30.11R
6HR MIN TEMP:  60; 6HR MAX TEMP:  75; 6HR PCP:  0.15;

HUNTINGBURG *+   N/A     61  55  82 N7        30.08R
6HR MIN TEMP:  61; 6HR MAX TEMP:  72; 6HR PCP:  0.24;

WASHINGTON +   CLOUDY    59  59 100 MISG      30.07R
6HR MIN TEMP:  59; 6HR MAX TEMP:  76; 6HR PCP:  0.02;


$$

INZ062-063-066-070>080-084-089>092-261300-
SOUTH CENTRAL AND SOUTHEAST INDIANA

CITY           SKY/WX    TMP DP  RH WIND       PRES   REMARKS
BLOOMINGTON    LGT RAIN  59  56  89 VRB3      30.04S
6HR MIN TEMP:  59; 6HR MAX TEMP:  74; 6HR PCP:  0.63;

MADISON *+     CLOUDY    63  55  77 NW10G21   30.06R
NORTH VERNON + HVY RAIN N/A N/A N/A NW8       30.07R
SEYMOUR +      LGT RAIN  61  59  94 CALM      30.05R

$$





USA.gov is the U.S. government's official web portal to all federal, state and local government web resources and services.